TimeCST,TemperatureF,Dew PointF,Humidity,Sea Level PressureIn,VisibilityMPH,Wind Direction,Wind SpeedMPH,Gust SpeedMPH,PrecipitationIn,Events,Conditions,WindDirDegrees,DateUTC
12:53 AM,28.9,28.0,96,30.33,10.0,Calm,Calm,-,N/A,,Clear,0,2012-11-15 06:53:00
1:53 AM,28.0,26.1,92,30.33,10.0,Calm,Calm,-,N/A,,Clear,0,2012-11-15 07:53:00
2:53 AM,27.0,26.1,96,30.33,10.0,Calm,Calm,-,N/A,,Clear,0,2012-11-15 08:53:00
3:53 AM,27.0,25.0,92,30.33,10.0,Calm,Calm,-,N/A,,Clear,0,2012-11-15 09:53:00
4:53 AM,26.1,25.0,96,30.34,10.0,Calm,Calm,-,N/A,,Clear,0,2012-11-15 10:53:00
5:53 AM,26.1,25.0,96,30.35,10.0,Calm,Calm,-,N/A,,Clear,0,2012-11-15 11:53:00
6:53 AM,27.0,25.0,92,30.36,10.0,Calm,Calm,-,N/A,,Clear,0,2012-11-15 12:53:00
7:53 AM,30.0,28.9,96,30.39,10.0,Calm,Calm,-,N/A,,Clear,0,2012-11-15 13:53:00
8:53 AM,37.9,34.0,86,30.38,10.0,Calm,Calm,-,N/A,,Clear,0,2012-11-15 14:53:00
9:53 AM,44.1,33.1,65,30.38,10.0,Calm,Calm,-,N/A,,Clear,0,2012-11-15 15:53:00
10:53 AM,51.1,30.9,46,30.38,10.0,Calm,Calm,-,N/A,,Clear,0,2012-11-15 16:53:00
11:53 AM,55.0,27.0,34,30.35,10.0,ESE,3.5,-,N/A,,Clear,120,2012-11-15 17:53:00
12:53 PM,57.0,28.9,34,30.32,10.0,Calm,Calm,-,N/A,,Clear,0,2012-11-15 18:53:00
1:53 PM,57.9,28.9,33,30.30,10.0,Variable,3.5,-,N/A,,Clear,0,2012-11-15 19:53:00
2:53 PM,59.0,30.0,33,30.28,10.0,Variable,3.5,-,N/A,,Clear,0,2012-11-15 20:53:00
3:53 PM,57.9,30.0,35,30.29,10.0,Calm,Calm,-,N/A,,Clear,0,2012-11-15 21:53:00
4:53 PM,54.0,33.1,45,30.30,10.0,Calm,Calm,-,N/A,,Clear,0,2012-11-15 22:53:00
5:53 PM,48.9,32.0,52,30.30,10.0,Calm,Calm,-,N/A,,Clear,0,2012-11-15 23:53:00
6:53 PM,43.0,32.0,65,30.34,10.0,Calm,Calm,-,N/A,,Clear,0,2012-11-16 00:53:00
7:53 PM,39.9,33.1,77,30.35,10.0,Calm,Calm,-,N/A,,Clear,0,2012-11-16 01:53:00
8:53 PM,37.0,33.1,86,30.35,10.0,Calm,Calm,-,N/A,,Clear,0,2012-11-16 02:53:00
9:53 PM,36.0,32.0,86,30.36,10.0,Calm,Calm,-,N/A,,Clear,0,2012-11-16 03:53:00
10:53 PM,33.1,32.0,96,30.36,10.0,Calm,Calm,-,N/A,,Clear,0,2012-11-16 04:53:00
11:53 PM,32.0,30.0,92,30.37,10.0,Calm,Calm,-,N/A,,Clear,0,2012-11-16 05:53:00